{"data":{"norad_id":43672,"epoch":"2026-05-25T00:51:20.757024Z","epoch_age_seconds":62071,"freshness":"FRESH","line1":"1 43672U 18084B   26145.03565691  .00001396  00000+0  17304-3 0  9992","line2":"2 43672  97.8775 256.8192 0001390  93.6717 266.4656 14.84238039410121","mean_motion":14.84238039,"eccentricity":0.000139,"inclination_deg":97.8775,"raan_deg":256.8192,"arg_perigee_deg":93.6717,"mean_anomaly_deg":266.4656,"bstar":0.00017304,"rev_number":41012,"period_min":97.019478153935,"perigee_km":615.00636444935,"apogee_km":616.95072857128,"semimajor_km":6994.1155465103,"source":"CELESTRAK","updated_at":"2026-05-25T13:37:55.866229Z"}}